+ View the NASA Portal
+ Center for Near-Earth Object Studies
IMPORTANT:
The SSD Announcement email list is now available. Major changes are coming in the near future, including possible hostname and/or URL changes. To be notified of such changes, subscribe to this email list.
Please visit
this page
for more details.
Don't show this message again
JPL Small-Body Database Browser
Search:
[
help
]
215505 (2002 TZ363)
Classification:
Main-belt Asteroid
SPK-ID:
2215505
[
Ephemeris
|
Orbit Diagram
|
Orbital Elements
|
Mission Design
|
Physical Parameters
|
Discovery Circumstances
|
Close-Approach Data
]
[ show orbit diagram ]
Orbital Elements at Epoch 2458600.5 (2019-Apr-27.0) TDB
Reference:
JPL 11
(heliocentric ecliptic J2000)
Element
Value
Uncertainty (1-sigma)
Units
e
.04219411948612577
6.3799e-08
a
2.626872041651549
1.8077e-08
au
q
2.51603348885134
1.696e-07
au
i
3.742401800851459
4.6614e-06
deg
node
118.7896362800625
0.00011535
deg
peri
26.13102772648982
0.00014166
deg
M
193.6307798046517
8.2521e-05
deg
t
p
2459319.166307050267
(2021-Apr-14.66630705)
0.00035832
TDB
period
1555.094567578733
4.26
1.6053e-05
4.395e-08
d
yr
n
.2314971754807918
2.3896e-09
deg/d
Q
2.737710594451757
1.884e-08
au
Orbit Determination Parameters
# obs. used (total)
230
data-arc span
8633 days (23.64 yr)
first obs. used
1996-04-09
last obs. used
2019-11-28
planetary ephem.
DE431
SB-pert. ephem.
SB431-N16
condition code
0
norm. resid. RMS
.59702
source
ORB
producer
Otto Matic
solution date
2019-Dec-04 17:00:32
Additional Information
Earth MOID
= 1.52921 au
Jupiter MOID
= 2.24846 au
T_jup
= 3.398
[ show covariance matrix ]
[
Ephemeris
|
Orbit Diagram
|
Orbital Elements
|
Mission Design
|
Physical Parameters
|
Discovery Circumstances
|
Close-Approach Data
]
Physical Parameter Table
Parameter
Symbol
Value
Units
Sigma
Reference
Notes
absolute magnitude
H
16.8
n/a
MPO260380
215505 (2002 TZ363)
Discovered 2002-Oct-10 by Sloan Digital Sky Survey at Apache Point
Reference:
20090607/Numbers.arc
Last Updated:
2009-06-08
[ hide close-approach data ]
Close-Approach Data
...sorted by
Date/Time (TDB)
Date/Time (TDB)
Time Uncertainty
(days_HH:MM)
Body
Nominal Distance (au)
Minimum Distance (au)
Maximum Distance (au)
V-relative (km/s)
V-infinity (km/s)
JD (TDB)
Time Uncertainty (minutes)
Semi-major axis (km)
Semi-minor axis (km)
range-LOV angle (deg)
N-sigma
BP
Orbit Ref.
Reference
Modified
2067-Aug-21 15:23
00:20
Vesta
0.0427494212499251
0.0427368873962229
0.0427619553953024
1.60280509432534
1.60280335778901
2476249.141253009
19.6995697824567
636.608835631172
45.3128853737055
16.2803774888973
39693.1753812661
T
11
CATAB v2.0f-lin.ifort 2019-Dec-04 17:00:34
2019-Dec-04 17:00
2165-Aug-07 06:41
00:54
Vesta
0.0357261288651857
0.0356921116965449
0.0357601475095539
1.57595589006017
1.57595377674212
2512028.778693633
54.4346405023178
1693.91376767923
42.5407786066146
12.3770892779377
26393.943525748
T
11
CATAB v2.0f-lin.ifort 2019-Dec-04 17:00:34
2019-Dec-04 17:00
Alternate Designations
2002 TZ363
= 2004 BK133
[
Ephemeris
|
Orbit Diagram
|
Orbital Elements
|
Mission Design
|
Physical Parameters
|
Discovery Circumstances
|
Close-Approach Data
]
2019-Dec-08 21:52 UT
(server date/time)
Site Manager:
Ryan S. Park
Webmaster
:
Alan B. Chamberlin